New York Downtown Manhattan/w, NY

8:57 PM EST on December 06, 2019 (GMT -0500)
New York Downtown Manhattan/w

Weather History for KJRB - August, 2019

Change the Weather History Date:

Sunday, August 4, 2019

  Actual Average (WUND) Record (WUND)
Temperature  
Mean Temperature 81 °F -  
Max Temperature 91 °F - - (-1)
Min Temperature 71 °F - - (-1)
Cooling Degree Days 16    
Growing Degree Days 31 (Base 50)    
Moisture  
Dew Point 68 °F    
Average Humidity 74    
Maximum Humidity 94    
Minimum Humidity 39    
Precipitation  
Precipitation 0.02 in - - ()
Sea Level Pressure  
Sea Level Pressure 29.93 in    
Wind  
Wind Speed 5 mph (WNW)    
Max Wind Speed 12 mph    
Max Gust Speed 17 mph    
Visibility 9 miles    
Events Rain , Thunderstorm    
Averages and records for this station are not official NWS values.
T = Trace of Precipitation, MM = Missing Value Source: NWS Daily Summary

Daily Weather History Graph

Daily Weather History Graph

Search for Another Location

Airport or City:

Astronomy

Aug. 04, 2019 Rise Set
Actual Time 5:55 AM EDT 8:08 PM EDT
Civil Twilight 5:24 AM EDT 8:38 PM EDT
Nautical Twilight 4:47 AM EDT 9:15 PM EDT
Astronomical Twilight 4:06 AM EDT 9:56 PM EDT
Moon 9:59 AM EDT (8/4) 10:44 PM EDT (8/4)
Length of Visible Light 15h 13m
Length of Day
14h 12m
Waxing Crescent, 18% of the Moon is Illuminated
Aug 4
Waxing Crescent
Aug 7
First Quarter
Aug 15
Full
Aug 23
Last Quarter
Aug 30
New

Hourly Weather History & Observations

Time (EDT) Temp. Heat Index Dew Point Humidity Pressure Visibility Wind Dir Wind Speed Gust Speed Precip Events Conditions
12:01 AM 73.4 °F - 69.8 °F 88% 29.99 in 2.5 mi Variable 5.8 mph 16.1 mph 0.02 in Rain Rain
12:08 AM 71.6 °F - 69.8 °F 94% 29.98 in 1.2 mi NE 9.2 mph 17.3 mph 0.02 in Rain Light Rain
12:16 AM 71.6 °F - 69.8 °F 94% 29.98 in 1.0 mi NE 11.5 mph - 0.02 in   Overcast
12:22 AM 71.6 °F - 69.8 °F 94% 29.97 in 1.5 mi NE 10.4 mph - 0.02 in Thunderstorm Overcast
12:27 AM 71.6 °F - 69.8 °F 94% 29.98 in 3.0 mi NE 8.1 mph - 0.02 in Thunderstorm Overcast
12:39 AM 71.6 °F - 69.8 °F 94% 29.97 in 10.0 mi NE 8.1 mph - 0.02 in Rain Light Rain
12:56 AM 71.1 °F - 69.1 °F 93% 29.96 in 10.0 mi Calm Calm - 0.02 in   Scattered Clouds
1:56 AM 71.1 °F - 69.1 °F 93% 29.94 in 10.0 mi West 5.8 mph - N/A   Clear
2:56 AM 72.0 °F - 69.1 °F 91% 29.92 in 10.0 mi West 6.9 mph - N/A   Clear
3:56 AM 72.0 °F - 69.1 °F 91% 29.91 in 10.0 mi WSW 3.5 mph - N/A   Clear
4:56 AM 73.0 °F - 69.1 °F 87% 29.90 in 10.0 mi Calm Calm - N/A   Clear
5:56 AM 73.0 °F - 69.1 °F 87% 29.92 in 10.0 mi Calm Calm - N/A   Clear
6:56 AM 73.9 °F - 70.0 °F 87% 29.92 in 10.0 mi NE 5.8 mph - N/A   Clear
7:56 AM 73.9 °F - 68.0 °F 82% 29.93 in 10.0 mi Calm Calm - N/A   Clear
8:56 AM 77.0 °F - 66.9 °F 71% 29.93 in 10.0 mi Calm Calm - N/A   Clear
9:56 AM 81.0 °F 83.3 °F 66.9 °F 62% 29.94 in 10.0 mi West 4.6 mph - N/A   Clear
10:56 AM 84.0 °F 85.8 °F 64.9 °F 53% 29.94 in 10.0 mi West 4.6 mph - N/A   Clear
11:56 AM 87.1 °F 88.9 °F 64.9 °F 48% 29.93 in 10.0 mi Variable 3.5 mph - N/A   Clear
12:56 PM 88.0 °F 88.7 °F 63.0 °F 43% 29.91 in 10.0 mi Variable 4.6 mph - N/A   Clear
1:56 PM 89.1 °F 90.3 °F 64.0 °F 43% 29.91 in 10.0 mi Variable 3.5 mph - N/A   Clear
2:56 PM 89.1 °F 91.0 °F 64.9 °F 45% 29.89 in 10.0 mi Variable 5.8 mph - N/A   Scattered Clouds
3:56 PM 91.9 °F 93.3 °F 64.0 °F 39% 29.88 in 10.0 mi Calm Calm - N/A   Clear
4:56 PM 88.0 °F 89.6 °F 64.9 °F 46% 29.88 in 10.0 mi West 3.5 mph - N/A   Clear
5:56 PM 82.9 °F 85.8 °F 68.0 °F 60% 29.88 in 10.0 mi ENE 9.2 mph - 0.00 in Rain Light Rain
6:56 PM 80.1 °F 81.9 °F 64.9 °F 60% 29.89 in 10.0 mi SSW 5.8 mph - 0.00 in Rain Light Rain
7:56 PM 80.1 °F 81.9 °F 64.9 °F 60% 29.89 in 10.0 mi Calm Calm - 0.00 in   Overcast
8:56 PM 75.0 °F - 69.1 °F 82% 29.93 in 10.0 mi SSW 3.5 mph - 0.00 in Rain Light Rain
9:56 PM 75.0 °F - 69.1 °F 82% 29.95 in 10.0 mi WSW 5.8 mph - 0.00 in   Mostly Cloudy
10:56 PM 75.0 °F - 69.1 °F 82% 29.94 in 10.0 mi Calm Calm - N/A   Scattered Clouds
11:56 PM 73.9 °F - 69.1 °F 85% 29.94 in 10.0 mi West 3.5 mph - N/A   Clear